Location: Noyers
(47.2770°N, 1.4032°E)
Time: 03:38:31
(UTC+00:00)

NOSS 3 (A) - Pass Details

Date: 15 May 2026
Orbit: 160 x 953 km, 63.3° (Epoch: 23 April)

Event Time Altitude Azimuth Distance (km) Brightness Sun altitude
Rises 21:24:51 0° 317° (NW) 1,821 9.8 -16.0°
Reaches altitude 10° 21:26:29 10° 314° (NW) 1,108 8.2 -16.2°
Maximum altitude 21:28:52 66° 231° (SW) 360 4.3 -16.4°
Enters shadow 21:29:11 58° 186° (S) 396 4.3 -16.5°
